Weather History for KPVD - March, 2013

Change the Weather History Date:

Saturday, March 16, 2013

  Actual Average Record
Temperature  
Mean Temperature 35 °F 39 °F  
Max Temperature 40 °F 48 °F 72 °F (1935)
Min Temperature 29 °F 30 °F 13 °F (1932)
Degree Days  
Heating Degree Days 30 26  
Month to date heating degree days 427 454  
Since 1 July heating degree days 4248 4516  
Cooling Degree Days 0 0  
Month to date cooling degree days 0 0  
Year to date cooling degree days 0 0  
Moisture  
Dew Point 15 °F    
Average Humidity 43    
Maximum Humidity 61    
Minimum Humidity 25    
Precipitation  
Precipitation 0.00 in 0.17 in 1.28 in (1974)
Month to date precipitation 1.14 2.40  
Year to date precipitation 8.10 9.55  
Snow  
Snow 0.00 in 0.20 in 8.70 in (1978)
Month to date snowfall 2.3 3.7  
Since 1 July snowfall 43.7 31.4  
Snow Depth 0.00 in    
Sea Level Pressure  
Sea Level Pressure 29.81 in    
Wind  
Wind Speed 6 mph (West)    
Max Wind Speed 15 mph    
Max Gust Speed 18 mph    
Visibility 10 miles    
Events      
T = Trace of Precipitation, MM = Missing Value Source: NWS Daily Summary

Daily Weather History Graph

Daily Weather History Graph

Search for Another Location

Airport or City:

Trip Planner

Search our weather history database for the weather conditions in past years. The results will help you decide how hot, cold, wet, or windy it might be!

Date:

Astronomy

Mar. 16, 2013 Rise Set
Actual Time 6:55 AM EDT 6:53 PM EDT
Civil Twilight 6:27 AM EDT 7:21 PM EDT
Nautical Twilight 5:55 AM EDT 7:53 PM EDT
Astronomical Twilight 5:22 AM EDT 8:26 PM EDT
Moon 9:18 AM EDT (3/16) No Moon Set
Length of Visible Light 12h 53m
Length of Day
11h 58m
Waxing Crescent, 23% of the Moon is Illuminated
Mar 16
Waxing Crescent
Mar 19
First Quarter
Mar 27
Full
Apr 3
Last Quarter
Apr 10
New

Hourly Weather History & Observations

Time (EDT) Temp. Windchill Dew Point Humidity Pressure Visibility Wind Dir Wind Speed Gust Speed Precip Events Conditions
12:51 AM 35.1 °F 26.4 °F 25.0 °F 67% 29.73 in 10.0 mi West 12.7 mph 20.7 mph 0.00 in   Clear
1:51 AM 34.0 °F 28.0 °F 21.9 °F 61% 29.73 in 10.0 mi West 6.9 mph - N/A   Clear
2:51 AM 33.1 °F 26.9 °F 19.9 °F 59% 29.75 in 10.0 mi WNW 6.9 mph - N/A   Partly Cloudy
3:51 AM 33.8 °F 29.6 °F 19.4 °F 56% 29.77 in 10.0 mi WNW 4.6 mph - N/A   Mostly Cloudy
4:51 AM 32.0 °F 24.2 °F 18.0 °F 56% 29.80 in 10.0 mi WNW 9.2 mph - N/A   Scattered Clouds
5:51 AM 30.0 °F 24.1 °F 14.0 °F 51% 29.81 in 10.0 mi West 5.8 mph - N/A   Mostly Cloudy
6:51 AM 30.0 °F 24.1 °F 12.9 °F 49% 29.83 in 10.0 mi WNW 5.8 mph - N/A   Mostly Cloudy
7:51 AM 30.9 °F 24.3 °F 12.9 °F 47% 29.84 in 10.0 mi WNW 6.9 mph - N/A   Mostly Cloudy
8:51 AM 33.1 °F 26.1 °F 12.9 °F 43% 29.86 in 10.0 mi WNW 8.1 mph - N/A   Mostly Cloudy
9:51 AM 34.0 °F 28.8 °F 12.0 °F 40% 29.86 in 10.0 mi NW 5.8 mph - N/A   Mostly Cloudy
10:51 AM 35.1 °F 30.1 °F 10.0 °F 35% 29.84 in 10.0 mi West 5.8 mph - N/A   Overcast
11:51 AM 36.0 °F 29.6 °F 8.1 °F 31% 29.83 in 10.0 mi WNW 8.1 mph - N/A   Overcast
12:51 PM 36.0 °F - 6.1 °F 29% 29.82 in 10.0 mi Calm Calm - N/A   Overcast
1:51 PM 37.9 °F 35.5 °F 7.0 °F 28% 29.81 in 10.0 mi SE 3.5 mph - N/A   Overcast
2:51 PM 39.0 °F 36.8 °F 6.1 °F 26% 29.80 in 10.0 mi West 3.5 mph - N/A   Overcast
3:51 PM 39.0 °F 32.8 °F 9.0 °F 29% 29.80 in 10.0 mi West 9.2 mph - N/A   Overcast
4:51 PM 39.0 °F 31.8 °F 15.1 °F 38% 29.79 in 10.0 mi SE 11.5 mph - N/A   Scattered Clouds
5:51 PM 36.0 °F 28.5 °F 17.1 °F 46% 29.78 in 10.0 mi SSE 10.4 mph - N/A   Scattered Clouds
6:51 PM 36.0 °F 29.6 °F 19.0 °F 50% 29.79 in 10.0 mi South 8.1 mph - N/A   Mostly Cloudy
7:51 PM 36.0 °F 33.3 °F 19.0 °F 50% 29.81 in 10.0 mi South 3.5 mph - N/A   Overcast
8:51 PM 36.0 °F - 19.0 °F 50% 29.83 in 10.0 mi Calm Calm - N/A   Overcast
9:51 PM 37.0 °F 32.4 °F 12.9 °F 37% 29.84 in 10.0 mi West 5.8 mph - N/A   Overcast
10:51 PM 36.0 °F 29.6 °F 17.1 °F 46% 29.86 in 10.0 mi West 8.1 mph - N/A   Overcast
11:51 PM 35.1 °F 30.1 °F 18.0 °F 50% 29.88 in 10.0 mi West 5.8 mph - N/A   Overcast